Regional Weather Roundup
Issued by NWS

Home | Current Version | Previous Version | Graphics & Text | Print | Product List | Glossary On
Versions: 1 2 3 4 5 6 7 8 9 10 11 12 13 14 15 16 17 18 19 20 21 22 23 24 25 26 27 28 29 30 31 32 33 34 35 36 37 38 39 40 41 42 43 44 45 46 47 48 49 50
000
ASUS43 KLSX 251659
RWRMO

WEATHER SUMMARY FOR MISSOURI
NATIONAL WEATHER SERVICE SPRINGFIELD MO
1200 PM CDT THU MAY 25 2017

NOTE: "FAIR" INDICATES FEW OR NO CLOUDS BELOW 12,000 FEET WITH NO
       SIGNIFICANT WEATHER AND/OR OBSTRUCTIONS TO VISIBILITY.
       CURRENT SKY AND/OR WEATHER CONDITIONS ARE NOT AVAILABLE FOR
       CHILLICOTHE AND FARMINGTON.

MOZ001>031-035>038-043-044-053-054-251800-
...NORTHERN AND WESTERN MISSOURI...

CITY           SKY/WX    TMP DP  RH WIND       PRES   REMARKS
KANSAS CTY INT MOSUNNY   70  51  51 S12       29.69F
KANSAS C DTWN  SUNNY     71  49  45 S12G18    29.69F
LEE`S SUMMIT   SUNNY     69  50  50 SE9       29.71F
ST JOSEPH      SUNNY     71  52  50 S16       29.68F
CHILLICOTHE      N/A     67  51  56 S7        29.73S
KIRKSVILLE     SUNNY     66  48  52 VRB5      29.74R

$$
MOZ066>068-077>081-088>096-101>105-251800-
...SOUTHWEST MISSOURI...

CITY           SKY/WX    TMP DP  RH WIND       PRES   REMARKS
SPRINGFIELD    SUNNY     68  50  52 S10       29.75F
JOPLIN         SUNNY     72  53  51 S12       29.73F
BRANSON        MOSUNNY   68  48  49 S7        29.79F

$$
MOZ032>034-039>042-045>050-055>058-069>072-251800-
...CENTRAL MISSOURI...

CITY           SKY/WX    TMP DP  RH WIND       PRES   REMARKS
COLUMBIA       MOSUNNY   68  51  54 W8        29.75S
JEFFERSON CITY MOSUNNY   69  50  50 SW5       29.74F
ROLLA          MOSUNNY   66  52  60 SW9       29.75S
SEDALIA        MOSUNNY   70  54  56 VRB7      29.75F
WARRENSBURG    MOSUNNY   68  52  56 SE8       29.73F
OSAGE BEACH    MOSUNNY   67  50  54 SW7       29.77S

$$
MOZ051-052-059>065-251800-
...EAST CENTRAL MISSOURI...

CITY           SKY/WX    TMP DP  RH WIND       PRES   REMARKS
ST LOUIS INTL  MOSUNNY   71  50  47 NW12G18   29.73R
SPIRIT OF STL  MOSUNNY   69  52  54 W5        29.72S
ST CHARLES     MOSUNNY   68  53  58 W8        29.72R

$$
MOZ072>076-082>087-097>100-106>115-251800-
...SOUTH CENTRAL AND SOUTHEAST MISSOURI...

CITY           SKY/WX    TMP DP  RH WIND       PRES   REMARKS
CAPE GIRARDEAU MOSUNNY   70  50  49 SW7G18    29.74S
FARMINGTON     SUNNY     67  51  56 NW7       29.76R
POPLAR BLUFF   SUNNY     70  53  54 SW10      29.76S
WEST PLAINS    SUNNY     68  50  52 W9        29.80S

$$



USA.gov is the U.S. government's official web portal to all federal, state and local government web resources and services.